Flag Weather past 2 weeks in Saguenay, Quebec, Canada

Now
31 °F

Chilly.


Feels Like: 31 °F
Forecast: 27 / 32 °F
Wind: 2 mph from East

Location: Jonquiere Airport

Current Time: Nov 23, 2014 at 3:31:06 PM

Latest Report: Nov 23, 2014 at 3:00 PM


Visibility: N/A

Pressure: 30.06 "Hg

Humidity: 74%

Dew point: 24 °F

Location of SaguenayLocation

Historic Weather in Saguenay — Graph

°F

Saguenay temperature yesterday

Maximum temperature yesterday: 33 °F (at 11:00 PM)
Minimum temperature yesterday: 8 °F (at 4:00 AM)
Average temperature yesterday: 20 °F

Past Weeks' High & Low Weather Summary

 TemperatureHumidityPressure
High38 °F (Nov 9, 10:00 AM)100% (Nov 16, 8:00 PM)30.28 "Hg (Nov 16, 8:00 PM)
Low8 °F (Nov 22, 4:00 AM)46% (Nov 10, 4:00 PM)29.18 "Hg (Nov 18, 9:00 AM)
Average26 °F77%29.88 "Hg
* Reported Nov 8 2:00 PM — Nov 23 2:00 PM, Saguenay, Weather by CustomWeather, © 2014

Note: Actual official high and low records may vary slightly from our data, if they occured in-between our weather recording intervals... More about our weather records

Advertising

Saguenay weather history for previous 24 hours

 ConditionsComfort  
Time TempWeatherWind HumidityBarometerVisibility
2:00 PM
Nov 23
31 °FChilly.2 mph72%30.03 "HgN/A
1:00 PM31 °FChilly.5 mph73%30.02 "HgN/A
12:00 PM31 °FChilly.5 mph73%30.02 "HgN/A
11:00 AM33 °FChilly.5 mph68%30.01 "HgN/A
10:00 AM32 °FChilly.1 mph74%29.99 "HgN/A
9:00 AM31 °FChilly.8 mph77%30.01 "HgN/A
8:00 AM32 °FChilly.12 mph77%29.97 "HgN/A
7:00 AM32 °FChilly.10 mph80%29.93 "HgN/A
6:00 AM34 °FChilly.14 mph84%29.90 "HgN/A
5:00 AM35 °FChilly.12 mph83%29.86 "HgN/A
4:00 AM35 °FChilly.14 mph82%29.81 "HgN/A
3:00 AM35 °FChilly.16 mph82%29.79 "HgN/A
2:00 AM35 °FChilly.18 mph81%29.78 "HgN/A
1:00 AM34 °FChilly.16 mph81%29.75 "HgN/A
12:00 AM33 °FChilly.16 mph83%29.74 "HgN/A
11:00 PM
Nov 22
33 °FChilly.16 mph84%29.73 "HgN/A
10:00 PM31 °FChilly.16 mph86%29.72 "HgN/A
9:00 PM32 °FChilly.18 mph82%29.72 "HgN/A
8:00 PM32 °FChilly.20 mph80%29.72 "HgN/A
7:00 PM31 °FChilly.20 mph80%29.72 "HgN/A
6:00 PM31 °FChilly.15 mph79%29.72 "HgN/A
5:00 PM30 °FChilly.16 mph78%29.72 "HgN/A
4:00 PM30 °FChilly.16 mph76%29.74 "HgN/A
3:00 PM28 °FChilly.14 mph77%29.75 "HgN/A
Weather by CustomWeather, © 2014

See weather overviewHow to use our weather pages